铱星星座 157星 (IRIDIUM 157)

导读

IRIDIUM 157是美国于2018年3月30日发射的低轨通信卫星,隶属于铱星系统。铱星系统是全球覆盖的卫星通信网络,通过近地轨道星座实现全球任意地点无缝通信服务。该卫星部署在约780公里高度的极地轨道,承担语音、数据通信业务,支持跨区域移动通信、偏远地区通信连接,为铱星系统的全球服务能力提供补充,设计具备较长服役寿命,保障全球全天候通信覆盖。

基本信息
目录编号:
43251
目录名称:
IRIDIUM 157
国际标识:
2018-030C
轨道中心:
EARTH
卫星名称:
铱星星座 157星
卫星全名:
铱星星座 157星 (IRIDIUM 157)
卫星状态:
在轨 (已飞行3041 天)
发射日期:
2018-03-30 UTC
国别 :
美国 (US)
星等 :
--
轨道信息
数据来源 国际轨道数据 AOE轨道数据
星历时间 2026-07-27T13:35:59+0800
16小时前
查看轨道信息
2026-07-27T00:00:00+0800
1天前
查看轨道信息
半长轴 7155.805km 7155.812km
偏心率 0.000217 0.0002117
轨道倾角 86.395° 86.395°
近地点辐角 94.479° 95.204°
升交点赤经 273.677° 273.914°
平近点角 265.666° 221.015°
近地点 776.115km 776.16km
远地点 779.221km 779.19km
周期 100.403分钟 100.403分钟
每日圈数 14.342175 14.342155
详细信息
平衡模式:
三轴稳定
覆盖范围:
全球
运营商:
铱星通信公司
运营商所在国:
美国
制造商(研发单位):
阿莱尼亚宇航公司
制造商所在国:
意大利
使用方式:
暂无
卫星简介
铱星(Iridium)是由共66个运作中的通信卫星组成的卫星通信系统。这个系统原本规划77个通信卫星,所以用原子序数为77的铱元素来命名。铱卫星允许人们使用手持型电子设备进行全球性的语音及数据通讯。该卫星仍在工作。
2D轨道图
3D轨道图
轨道高度分析图
轨道倾角分析图
轨道综合分析图
查看轨道综合分析图